[[{"header":{"parameterUnit":"m.s-1","parameterCategory":1,"la1":30.2991,"la2":30.254,"lo1":-89.0895,"lo2":-89.0444,"dy":0.0017,"dx":0.0017,"nx":28,"ny":28,"refTime":"2023-09-10T21:00:00:Z","depth":0,"parameterNumber":2,"parameterNumberName":"U-component_of_WINDS"},"data":[0,0,0,0,0,0,0,0,0,0,0,0,0,0,0,0,0,0,0,0,0,0,0,0,0,0,0,0,0,0,0,0,0,0,0,0,0,0,0,0,0,0,0,0,0,0,0,0,0,0,0,0,0,0,0,0,0,0,-1.2129,-1.2128,0,-1.2028,-1.2026,-1.2025,-1.1971,-1.1971,-1.1971,-1.1971,-1.1866,-1.1863,-1.186,0,0,0,0,0,0,0,0,0,0,0,0,0,-1.2276,-1.2274,-1.2129,-1.2128,-1.2127,-1.2028,-1.2026,-1.2025,-1.1971,-1.1971,-1.1971,-1.197,-1.1867,-1.1863,-1.186,0,0,0,0,0,0,0,0,0,0,0,0,0,-1.2197,-1.2273,-1.2129,-1.2088,-1.2083,-1.2028,-1.2026,-1.2025,-1.1971,-1.1971,-1.1971,-1.197,-1.1868,-1.1864,-1.186,-1.1838,0,0,-1.1847,-1.1846,0,0,0,0,0,0,0,0,-1.2202,-1.2192,-1.2095,-1.209,-1.2085,-1.2012,-1.204,-1.1962,-1.1971,-1.2013,-1.1971,-1.197,-1.1914,-1.1906,-1.1888,-1.1833,-1.1829,-1.1847,-1.1845,-1.1843,-1.1842,0,0,0,0,0,0,0,-1.2207,-1.2196,-1.2089,-1.2094,-1.2088,-1.2074,-1.2063,-1.2025,-1.1966,-1.201,-1.2006,-1.1994,-1.1912,-1.1892,-1.1885,-1.1827,-1.1847,-1.1844,-1.1841,-1.1839,-1.1752,-1.1752,0,0,0,0,0,0,-1.222,-1.2201,-1.2092,-1.2086,-1.2144,-1.2072,-1.2059,-1.2035,-1.1966,-1.1956,-1.1995,-1.1992,-1.1899,-1.189,-1.1881,-1.1852,-1.1843,-1.1839,-1.1837,-1.1752,-1.1752,-1.1752,0,0,0,0,0,0,-1.2223,-1.221,-1.2096,-1.2142,-1.2127,-1.2069,-1.2043,-1.2034,-1.2014,-1.1955,-1.1944,-1.1985,-1.1898,-1.1887,-1.185,-1.1848,-1.1837,-1.1834,-1.1752,-1.1752,-1.1752,-1.1794,0,0,0,0,0,0,-1.2227,-1.2212,-1.2203,-1.2142,-1.2124,-1.2067,-1.2043,-1.2032,-1.2007,-1.2003,-1.1943,-1.1933,-1.1897,-1.1856,-1.1846,-1.1842,-1.183,-1.1752,-1.1752,-1.1752,-1.1793,-1.1796,-1.1798,0,0,0,0,0,-1.2233,-1.2218,-1.2203,-1.219,-1.2112,-1.2067,-1.2056,-1.2016,-1.2007,-1.1998,-1.196,-1.1935,-1.185,-1.1853,-1.1841,-1.1836,-1.1751,-1.1752,-1.1752,-1.1791,-1.1795,-1.1798,0,0,0,0,0,0,-1.2279,-1.221,-1.2192,-1.2157,-1.2118,-1.2058,-1.2044,-1.2021,-1.1983,-1.1981,-1.1932,-1.1919,-1.1887,-1.1857,-1.1862,-1.1812,-1.1798,-1.1796,-1.1832,-1.1835,-1.1838,-1.1846,-1.1827,0,0,0,0,0,-1.2286,-1.2255,-1.2195,-1.2171,-1.2152,-1.2102,-1.2081,-1.2053,-1.201,-1.1994,-1.1953,-1.1913,-1.1877,-1.1855,-1.1818,-1.1788,-1.1775,-1.1779,-1.1782,-1.1785,-1.1783,-1.1767,-1.1768,-1.1753,-1.1753,-1.1753,0,0,-1.2298,-1.2256,-1.2239,-1.2179,-1.2146,-1.2115,-1.2088,-1.2056,-1.2033,-1.1989,-1.1951,-1.1921,-1.1873,-1.184,-1.1823,-1.1814,-1.1785,-1.1785,-1.1788,-1.1784,-1.1767,-1.1768,-1.177,-1.1753,-1.1753,-1.1753,0,0,-1.2305,-1.227,-1.2246,-1.2214,-1.2164,-1.2131,-1.2126,-1.2069,-1.2047,-1.2009,-1.1976,-1.1947,-1.1887,-1.1854,-1.183,-1.1827,-1.1803,-1.1817,-1.1831,-1.1816,-1.1817,-1.1818,-1.1817,-1.1818,-1.1816,-1.1816,-1.1816,0,-1.2327,-1.2279,-1.2237,-1.2207,-1.2182,-1.2142,-1.2117,-1.2088,-1.2029,-1.2013,-1.2004,-1.1928,-1.1893,-1.1852,-1.1852,-1.1833,-1.1826,-1.1823,-1.182,-1.182,-1.1821,-1.182,-1.182,-1.1818,-1.1818,-1.1817,-1.1817,0,-1.2309,-1.2276,-1.2263,-1.2208,-1.2181,-1.2155,-1.2109,-1.2087,-1.2062,-1.2031,-1.1993,-1.195,-1.1905,-1.1893,-1.1868,-1.185,-1.1846,-1.1829,-1.1814,-1.1825,-1.1823,-1.1823,-1.1821,-1.182,-1.1819,-1.1819,0,0,-1.234,-1.2264,-1.226,-1.2235,-1.2178,-1.2152,-1.2125,-1.2081,-1.2064,-1.2025,-1.2001,-1.1951,-1.1936,-1.1909,-1.188,-1.1866,-1.1868,-1.1851,-1.185,-1.1856,-1.1846,-1.1859,-1.1859,-1.1852,-1.1852,-1.1852,-1.185,0,-1.2339,-1.2287,-1.225,-1.2212,-1.2183,-1.2145,-1.212,-1.2083,-1.2053,-1.2024,-1.1991,-1.1957,-1.1939,-1.1923,-1.1907,-1.1871,-1.1865,-1.1871,-1.1829,-1.1828,-1.1842,-1.1858,-1.1871,-1.1872,-1.1849,-1.1849,-1.1849,0,-1.2331,-1.2295,-1.2255,-1.2203,-1.2189,-1.2167,-1.2126,-1.2098,-1.2056,-1.2035,-1.2005,-1.1976,-1.1946,-1.1934,-1.1892,-1.1897,-1.1878,-1.1858,-1.1857,-1.1851,-1.1839,-1.1853,-1.1871,-1.1871,-1.1848,-1.1848,-1.1848,0,-1.2359,-1.23,-1.2269,-1.2249,-1.2187,-1.2173,-1.2147,-1.2104,-1.2081,-1.2045,-1.203,-1.199,-1.1968,-1.1939,-1.19,-1.1895,-1.1862,-1.1847,-1.1844,-1.1846,-1.1839,-1.184,-1.1854,-1.1827,-1.1827,-1.1827,-1.1827,0,-1.2362,-1.2339,-1.2281,-1.2261,-1.2235,-1.2193,-1.2168,-1.2138,-1.2101,-1.2076,-1.2041,-1.2018,-1.1968,-1.194,-1.1909,-1.188,-1.187,-1.1853,-1.1845,-1.1856,-1.1858,-1.1842,-1.1841,-1.1827,-1.1827,-1.1827,-1.1827,0,-1.2388,-1.2348,-1.2312,-1.2257,-1.2243,-1.2226,-1.2179,-1.2159,-1.2128,-1.2097,-1.2087,-1.2038,-1.2003,-1.1962,-1.1913,-1.1892,-1.1865,-1.1854,-1.188,-1.1875,-1.1875,-1.1876,-1.188,-1.1878,-1.1853,-1.1853,-1.1853,0,-1.2392,-1.2374,-1.2318,-1.2299,-1.2274,-1.2243,-1.222,-1.2178,-1.2155,-1.2107,-1.2093,-1.2055,-1.2023,-1.1968,-1.1929,-1.1891,-1.1879,-1.1883,-1.1873,-1.1885,-1.1879,-1.1881,-1.1879,-1.1885,-1.1886,-1.1886,-1.1886,0,-1.2405,-1.2386,-1.2354,-1.2316,-1.2289,-1.2257,-1.2223,-1.2209,-1.216,-1.2137,-1.2101,-1.2076,-1.2026,-1.199,-1.1948,-1.1921,-1.1896,-1.189,-1.1888,-1.1898,-1.1915,-1.1906,-1.1887,-1.189,-1.189,-1.1889,-1.1889,-1.1889,-1.242,-1.2403,-1.2361,-1.2327,-1.2297,-1.2267,-1.2246,-1.2213,-1.2182,-1.2139,-1.2116,-1.2081,-1.2041,-1.1982,-1.1956,-1.1928,-1.192,-1.1916,-1.1915,-1.1915,-1.1918,-1.192,-1.1921,-1.192,-1.192,-1.192,-1.192,0,-1.2431,-1.2403,-1.2372,-1.2326,-1.2299,-1.2279,-1.2241,-1.222,-1.219,-1.2154,-1.2124,-1.2083,-1.2048,-1.2006,-1.1968,-1.1954,-1.1942,-1.1946,-1.1946,-1.1941,-1.1928,-1.1934,-1.1956,-1.1956,-1.1956,-1.1956,-1.1956,-1.1956,-1.2433,-1.2403,-1.238,-1.2335,-1.2307,-1.2273,-1.2253,-1.2225,-1.2197,-1.2153,-1.2124,-1.2097,-1.206,-1.2019,-1.1986,-1.1975,-1.1963,-1.197,-1.1956,-1.1944,-1.1941,-1.1938,-1.1944,-1.1968,-1.1968,-1.1971,-1.1971,-1.1971]},{"header":{"parameterUnit":"m.s-1","parameterCategory":1,"la1":30.2991,"la2":30.254,"lo1":-89.0895,"lo2":-89.0444,"dy":0.0017,"dx":0.0017,"nx":28,"ny":28,"refTime":"2023-09-10T21:00:00:Z","depth":0,"parameterNumber":3,"parameterNumberName":"V-component_of_WINDS"},"data":[0,0,0,0,0,0,0,0,0,0,0,0,0,0,0,0,0,0,0,0,0,0,0,0,0,0,0,0,0,0,0,0,0,0,0,0,0,0,0,0,0,0,0,0,0,0,0,0,0,0,0,0,0,0,0,0,0,0,3.7033,3.7033,0,3.7005,3.7005,3.7004,3.7018,3.7019,3.702,3.702,3.6985,3.6984,3.6982,0,0,0,0,0,0,0,0,0,0,0,0,0,3.7095,3.7093,3.7033,3.7033,3.7033,3.7005,3.7005,3.7004,3.7018,3.7019,3.702,3.7021,3.6986,3.6984,3.6982,0,0,0,0,0,0,0,0,0,0,0,0,0,3.7067,3.7093,3.7034,3.7036,3.7036,3.7005,3.7005,3.7004,3.7018,3.7019,3.702,3.7021,3.6987,3.6984,3.6982,3.6944,0,0,3.6974,3.6973,0,0,0,0,0,0,0,0,3.7069,3.7065,3.7036,3.7036,3.7036,3.7017,3.7014,3.6984,3.7018,3.7025,3.702,3.7022,3.6994,3.6991,3.6983,3.6943,3.6941,3.6974,3.6973,3.6972,3.6971,0,0,0,0,0,0,0,3.7071,3.7066,3.7022,3.7036,3.7036,3.7038,3.7035,3.7008,3.7003,3.7024,3.7025,3.7022,3.6995,3.6986,3.6983,3.6941,3.6974,3.6972,3.697,3.697,3.6868,3.6867,0,0,0,0,0,0,3.7073,3.7068,3.7023,3.7021,3.7056,3.7036,3.7033,3.7022,3.7004,3.7002,3.7021,3.7023,3.6989,3.6986,3.6982,3.6937,3.6972,3.6969,3.6968,3.6869,3.6868,3.6866,0,0,0,0,0,0,3.7074,3.7069,3.7024,3.7045,3.7039,3.7033,3.7021,3.702,3.7012,3.7002,3.7,3.7013,3.699,3.6985,3.6954,3.6936,3.6968,3.6966,3.6871,3.6869,3.6867,3.6847,0,0,0,0,0,0,3.7076,3.7069,3.7056,3.7044,3.7038,3.6998,3.702,3.7019,3.7008,3.701,3.6994,3.6992,3.6991,3.6958,3.6952,3.6933,3.6964,3.6872,3.687,3.6868,3.6849,3.6844,3.684,0,0,0,0,0,3.7078,3.705,3.7055,3.705,3.7022,3.6997,3.6993,3.6994,3.7007,3.6993,3.6986,3.6993,3.6939,3.6954,3.6948,3.6928,3.6873,3.6871,3.6868,3.6851,3.6845,3.684,0,0,0,0,0,0,3.7057,3.7048,3.7054,3.7022,3.7011,3.7,3.6982,3.6988,3.6971,3.6973,3.6973,3.6969,3.6937,3.693,3.6947,3.6891,3.6908,3.6904,3.6897,3.6892,3.6888,3.689,3.6962,0,0,0,0,0,3.7049,3.7032,3.7025,3.6996,3.6991,3.6987,3.6977,3.6979,3.6966,3.696,3.6952,3.6938,3.6918,3.6904,3.6885,3.6848,3.6844,3.6831,3.6827,3.6824,3.682,3.6799,3.6793,3.6857,3.6857,3.6857,0,0,3.7031,3.7025,3.7013,3.6992,3.6984,3.6964,3.6983,3.6962,3.6947,3.6957,3.6927,3.6921,3.6905,3.6871,3.6855,3.6863,3.6801,3.682,3.6818,3.6815,3.6796,3.679,3.6785,3.6855,3.6856,3.6856,0,0,3.699,3.6983,3.6959,3.6951,3.6939,3.6937,3.6931,3.692,3.6917,3.6888,3.6895,3.6877,3.6842,3.6831,3.6821,3.6777,3.6782,3.677,3.6747,3.6728,3.6723,3.6718,3.6702,3.6696,3.6766,3.6766,3.6766,0,3.6969,3.6942,3.6946,3.6924,3.6915,3.6925,3.69,3.6892,3.6873,3.6865,3.6875,3.6833,3.6823,3.6787,3.6776,3.6768,3.676,3.6771,3.6724,3.6719,3.6715,3.6699,3.6693,3.6765,3.6765,3.6765,3.6766,0,3.6916,3.6898,3.688,3.6864,3.6852,3.6829,3.6828,3.6816,3.6819,3.6815,3.6786,3.6775,3.6754,3.6746,3.6747,3.6709,3.6715,3.6724,3.6741,3.6707,3.6693,3.6687,3.6763,3.6764,3.6764,3.6764,0,0,3.6859,3.6848,3.6841,3.6834,3.6822,3.6807,3.6784,3.6766,3.6755,3.6742,3.6722,3.6693,3.6703,3.6691,3.6692,3.6674,3.664,3.6686,3.6685,3.6677,3.6597,3.659,3.6583,3.6644,3.6643,3.6642,3.6598,0,3.6816,3.6778,3.6782,3.6745,3.6728,3.6738,3.6718,3.6708,3.6705,3.6688,3.6683,3.6663,3.6677,3.667,3.6654,3.6648,3.6624,3.6651,3.6624,3.6623,3.6627,3.6575,3.6567,3.6526,3.6592,3.6592,3.6591,0,3.676,3.6748,3.6711,3.6702,3.6695,3.6677,3.6661,3.6646,3.6634,3.6633,3.6621,3.6625,3.6601,3.6619,3.6585,3.6604,3.6593,3.6588,3.6587,3.6583,3.6604,3.657,3.6513,3.6507,3.6582,3.6583,3.6583,0,3.6722,3.6696,3.667,3.6664,3.6654,3.6641,3.6636,3.6626,3.6615,3.66,3.6593,3.6575,3.6565,3.6551,3.6549,3.6563,3.6515,3.6533,3.6512,3.6512,3.65,3.6501,3.6441,3.6495,3.6495,3.6495,3.6495,0,3.6673,3.665,3.6653,3.6637,3.6611,3.6615,3.6588,3.6584,3.6575,3.6557,3.6565,3.6548,3.6548,3.653,3.6528,3.65,3.6496,3.6493,3.6493,3.6492,3.6492,3.6484,3.6487,3.6493,3.6494,3.6494,3.6494,0,3.6625,3.6627,3.6599,3.6593,3.6591,3.6571,3.6565,3.6549,3.6548,3.6525,3.652,3.6516,3.6496,3.6494,3.6469,3.6468,3.6434,3.6437,3.6439,3.6439,3.6418,3.642,3.635,3.6341,3.6401,3.64,3.64,0,3.6594,3.6576,3.6569,3.6559,3.6553,3.6536,3.6526,3.653,3.6518,3.6505,3.649,3.6471,3.6456,3.6423,3.6417,3.6398,3.64,3.6377,3.6397,3.6397,3.6399,3.64,3.6398,3.6373,3.6372,3.6372,3.6371,0,3.6537,3.654,3.6526,3.6512,3.65,3.6489,3.6479,3.647,3.6472,3.6458,3.6439,3.6427,3.6404,3.6384,3.6367,3.6359,3.6365,3.6365,3.6359,3.6358,3.6359,3.6358,3.6428,3.6366,3.6367,3.6367,3.6368,3.6368,3.6496,3.6482,3.6475,3.6459,3.6452,3.6442,3.6428,3.6425,3.641,3.6392,3.6395,3.6373,3.6362,3.6339,3.6331,3.6313,3.632,3.6311,3.6309,3.6307,3.6305,3.6363,3.6309,3.6309,3.631,3.631,3.631,0,3.644,3.6437,3.6423,3.6409,3.6397,3.6406,3.6395,3.6384,3.6365,3.6355,3.6341,3.6319,3.63,3.6294,3.6276,3.6263,3.6265,3.6257,3.6258,3.6256,3.6299,3.6306,3.6256,3.6256,3.6256,3.6256,3.6256,3.6256,3.641,3.6386,3.6387,3.6359,3.6355,3.6336,3.6329,3.632,3.6312,3.6288,3.6273,3.627,3.6261,3.6243,3.6226,3.6224,3.6217,3.6209,3.6208,3.6248,3.6253,3.6258,3.6265,3.6207,3.6207,3.6167,3.6166,3.6166]}]]